Location: Shenandoah County Park
(38.9356°N, 78.4524°W)
Time: 19:17:40
(UTC-04:00)

Explorer 11/Cluster Stage 4 - Pass Details

Date: 03 March 2024
Orbit: 465 x 1219 km, 28.8° (Epoch: 22 April)

Event Time Altitude Azimuth Distance (km) Brightness Sun altitude
Rises 02:45:22 0° 264° (W) 4,119 - -44.9°
Reaches altitude 10° 02:48:51 10° 252° (WSW) 3,169 - -44.3°
Maximum altitude 02:55:01 25° 202° (SSW) 2,222 - -43.4°
Drops below altitude 10° 03:00:54 10° 151° (SSE) 3,007 - -42.4°
Exits shadow 03:03:47 - 139° (SE) 3,774 10.2 -41.9°
Sets 03:04:07 0° 138° (SE) 3,867 10.2 -41.9°
